ECMWFFLT1_850_dewp_021.txt.gz
Dewpoint
12 13 13 14 14 13 13 12 10 9 9 10 9 8 9 9 10 10 9 9 11 11 12 12 12 12 11 11 11 12 12 12 11 11 11 10 10 10 10 9 9 9 8 9 9 10 10 10 11 11 11 11 11 12 13 14 15 15 15 14 13 13 13
12 12 13 13 14 13 13 12 11 10 8 8 8 8 10 10 9 8 8 8 8 9 10 11 11 11 11 10 11 12 12 12 13 12 12 12 12 12 11 11 10 10 9 10 10 10 11 11 11 12 12 12 12 12 13 14 14 15 15 15 14 14 13
10 11 12 13 13 12 12 12 12 11 10 8 8 8 9 9 8 7 7 7 6 7 9 10 11 11 11 10 10 11 12 12 13 13 13 12 13 13 13 12 11 11 10 10 10 11 11 11 11 12 12 12 12 12 13 13 14 15 15 15 15 14 13
9 10 11 11 11 12 12 12 12 11 11 10 8 7 7 7 6 7 7 7 6 5 6 7 9 10 10 10 10 10 11 12 12 12 12 12 13 13 13 13 12 11 11 10 11 11 11 11 12 12 12 12 12 12 13 13 13 14 15 15 15 14 13
8 8 10 11 11 12 12 12 12 11 11 10 9 8 7 6 7 8 8 8 8 6 5 5 6 8 9 10 10 10 11 11 11 12 12 12 13 13 13 13 12 12 11 11 11 10 10 11 11 12 12 12 12 12 13 13 13 14 14 14 15 14 13
6 7 8 8 10 11 11 11 11 11 11 10 10 9 7 7 8 8 8 9 9 9 9 9 8 7 7 8 9 10 10 11 11 12 12 12 12 12 13 13 13 12 12 11 11 11 11 11 11 11 12 12 11 12 12 13 13 13 14 14 14 13 12
4 4 4 6 7 8 9 10 11 11 11 11 11 10 9 10 9 9 9 8 8 9 10 10 10 9 8 7 8 8 8 9 11 11 12 12 12 13 12 12 12 12 12 12 12 12 12 11 11 11 11 12 12 11 12 12 12 12 13 13 13 13 12
1 3 2 4 5 6 8 9 9 11 11 11 11 11 11 11 11 10 10 9 8 9 10 10 11 11 10 9 9 8 8 9 10 10 11 12 13 13 13 12 12 12 12 12 12 12 12 12 11 11 11 12 12 11 12 12 12 12 13 12 12 12 12
1 4 4 4 5 6 7 7 7 10 11 11 11 11 11 11 12 11 10 9 9 9 9 9 10 10 10 10 10 9 10 10 10 10 11 12 12 12 13 13 13 12 12 12 13 13 12 12 11 11 11 11 12 11 12 12 12 12 12 12 12 12 12
1 2 4 5 6 6 6 7 7 9 10 11 10 11 11 11 11 11 11 11 10 10 9 9 10 10 9 10 10 10 11 11 11 11 11 12 12 13 13 13 13 12 12 12 13 13 12 12 12 11 11 11 11 11 11 12 12 12 12 12 12 12 11
-3 -1 1 4 5 5 6 6 7 7 8 9 10 10 11 11 11 11 11 11 10 10 10 11 11 10 9 10 11 11 11 11 11 12 12 12 13 13 13 13 13 13 12 13 13 13 13 13 13 12 11 10 10 11 11 11 11 11 12 12 11 11 11
-3 -2 -1 0 1 4 5 6 6 6 7 8 9 9 10 10 10 11 11 10 10 10 11 11 11 11 10 10 11 11 11 10 11 12 12 12 12 12 12 13 13 13 12 13 13 13 13 13 13 12 11 10 10 10 10 11 11 11 11 12 11 11 10
-5 -4 -5 -2 0 3 5 5 5 6 6 7 8 8 9 9 10 10 10 10 10 11 12 12 11 11 11 11 11 11 10 10 10 10 11 11 11 11 12 12 13 13 12 12 13 13 13 13 13 12 11 11 10 9 10 10 10 10 11 12 11 11 10
-6 -6 -8 -5 -3 0 3 4 5 5 5 6 7 7 8 9 9 9 9 9 10 11 11 11 11 11 11 11 11 11 10 10 10 10 10 10 10 10 11 11 12 12 12 12 13 13 13 13 13 12 12 11 11 10 9 9 10 10 10 11 11 11 11
-6 -8 -8 -7 -7 -4 -2 0 3 4 4 5 6 7 7 8 8 8 9 9 10 10 10 10 10 10 11 11 11 10 10 10 10 10 10 11 11 10 11 11 12 12 12 12 13 13 13 13 13 13 13 12 11 11 10 9 9 9 10 10 11 11 11
-8 -10 -9 -8 -8 -7 -6 -5 -2 1 3 5 5 6 7 7 8 8 9 9 9 9 10 10 9 10 11 11 11 11 11 11 11 11 11 11 11 11 11 11 12 12 12 12 13 13 13 13 14 14 14 13 12 11 10 9 8 8 9 10 10 11 11
-10 -10 -9 -10 -8 -7 -7 -7 -5 -1 2 3 4 5 6 6 7 7 8 9 9 9 9 10 9 9 10 10 10 11 11 11 11 11 11 12 12 11 11 11 12 12 12 12 13 13 13 14 14 14 14 13 12 11 11 9 7 7 8 9 10 11 11
-11 -11 -11 -11 -9 -10 -10 -8 -6 -3 0 1 3 4 5 5 6 7 8 8 8 8 9 9 9 9 9 10 10 11 11 12 12 12 11 12 12 12 12 12 12 12 12 12 13 13 13 14 14 14 14 14 13 11 10 9 7 7 8 8 9 11 11
-11 -11 -12 -12 -12 -12 -12 -11 -8 -3 0 1 2 2 3 5 6 6 7 7 8 9 10 9 9 9 9 10 11 11 12 12 12 12 12 12 12 12 12 12 12 12 12 12 13 13 13 14 14 14 14 14 13 11 10 8 7 7 8 8 9 10 11
-12 -12 -12 -12 -13 -13 -12 -12 -10 -6 -0 3 3 2 3 5 5 5 6 7 8 10 10 10 10 10 10 11 11 12 12 12 12 12 12 12 12 13 12 12 12 12 12 13 13 13 13 14 14 14 14 14 13 11 9 8 7 7 8 8 9 10 11
-8 -9 -9 -10 -11 -12 -12 -11 -10 -10 -3 3 4 4 4 4 5 6 6 7 8 9 9 10 10 11 11 12 12 12 12 12 12 12 12 12 12 13 13 12 12 12 13 13 13 13 14 14 14 14 14 14 13 12 11 10 8 7 8 8 9 10 11
-3 -6 -6 -7 -10 -11 -10 -10 -10 -8 -1 4 4 4 4 4 5 7 7 7 8 8 9 10 10 11 11 12 12 12 12 12 12 12 13 13 13 13 13 13 13 13 13 13 13 14 15 15 14 14 14 14 14 13 14 13 10 6 7 8 9 11 12
0 -2 -3 -4 -7 -8 -7 -6 -4 -1 3 5 4 3 4 4 6 7 8 8 8 8 9 9 10 10 11 11 11 11 12 12 12 13 13 13 13 13 13 13 13 13 13 13 13 13 14 15 15 15 15 15 14 14 14 14 12 8 8 9 10 11 13
4 4 3 1 -2 -2 -1 0 2 4 5 6 4 4 4 5 6 6 7 8 8 9 9 9 10 10 10 10 10 10 11 11 12 12 13 13 13 13 13 13 13 13 13 13 14 14 14 15 16 17 17 15 15 14 14 15 14 12 11 12 12 12 13
9 9 8 6 5 4 4 4 4 5 7 7 6 6 6 6 6 7 7 8 8 9 9 9 9 9 9 10 10 10 11 11 12 12 13 13 13 13 13 14 13 14 14 14 14 14 15 15 17 18 17 16 16 16 15 15 15 14 14 14 14 14 14
14 13 12 10 8 8 6 5 5 6 7 8 8 8 8 7 7 7 8 8 9 9 9 9 9 9 9 10 11 11 11 11 12 12 12 12 13 13 14 14 14 14 14 14 15 15 16 17 17 17 17 17 17 17 16 15 15 15 15 15 15 15 15
16 16 14 12 10 9 8 7 7 7 8 9 9 9 9 9 9 8 8 9 9 9 9 9 9 10 10 11 12 12 12 13 13 13 12 13 13 14 15 15 15 15 15 15 16 16 17 17 18 17 17 18 18 18 17 15 15 15 15 15 15 16 16
15 16 16 15 13 11 10 8 8 8 9 10 10 10 10 10 10 10 10 10 10 10 10 10 10 11 11 12 12 13 13 13 13 14 14 14 14 15 15 15 15 16 15 15 16 16 17 18 18 18 18 18 18 18 17 16 15 14 15 15 15 16 17
14 15 16 17 16 14 12 10 9 9 9 10 10 10 11 11 11 11 11 11 11 12 11 12 12 12 12 12 12 12 12 13 13 14 14 14 14 15 15 16 16 16 16 16 16 16 17 17 17 18 18 18 18 18 18 17 17 15 15 16 16 16 17
14 14 15 16 16 16 14 12 11 11 11 11 11 11 11 11 12 12 12 12 12 12 12 12 13 13 13 13 13 13 13 13 13 14 14 14 15 15 16 16 16 16 16 16 16 17 17 17 18 18 18 18 18 18 18 18 18 17 17 17 17 17 17
15 14 14 15 15 15 15 14 14 13 14 14 14 13 12 12 12 12 13 13 13 13 12 13 13 13 14 14 14 14 14 14 14 14 14 14 15 15 15 16 16 16 16 16 17 17 17 18 18 18 18 17 18 18 18 18 18 17 18 18 18 18 18
15 15 14 14 14 14 14 14 14 14 15 16 17 16 16 15 15 14 14 14 13 13 13 13 13 13 13 14 14 14 14 15 15 15 15 15 15 15 15 15 16 16 16 17 17 17 17 18 18 18 18 18 18 18 18 18 18 18 18 18 18 18 18
15 15 14 14 14 14 14 13 13 13 13 15 16 16 17 17 17 17 16 16 16 16 15 15 15 14 14 14 14 15 15 15 15 15 15 15 15 16 16 16 16 16 17 17 17 17 18 17 17 18 18 18 18 18 18 18 18 17 17 18 18 18 17
15 15 15 15 15 15 14 13 13 12 12 12 13 14 14 15 16 16 16 17 17 17 17 17 17 17 16 15 15 15 15 15 15 15 15 15 16 16 16 16 16 16 17 17 17 17 17 17 17 17 17 16 17 18 18 18 17 17 17 17 18 18 18
15 15 15 16 16 16 15 14 13 12 12 12 12 12 12 12 13 13 13 14 14 15 15 16 17 18 17 17 16 16 16 16 16 16 16 16 16 16 16 16 16 16 17 17 17 17 17 17 17 16 16 16 16 17 17 17 16 15 16 17 17 17 17
15 15 15 15 16 16 16 15 13 12 11 11 12 12 12 12 12 12 12 12 12 12 12 13 14 15 16 17 17 17 17 17 17 17 17 16 16 16 16 16 16 16 16 17 17 17 17 17 17 17 17 18 17 17 16 16 16 15 16 17 17 17 17
15 15 15 15 15 15 15 15 14 14 13 12 12 12 12 12 12 12 12 12 12 12 12 12 12 12 13 14 14 15 15 15 16 16 17 17 17 17 17 17 16 16 16 17 17 17 17 18 18 18 18 18 18 18 17 18 18 17 17 17 17 17 17
15 15 15 15 15 15 15 15 15 15 15 15 14 12 12 12 12 12 13 13 12 12 12 12 11 10 10 10 10 10 10 11 12 12 13 14 15 15 16 16 16 16 16 17 17 17 17 17 18 18 18 18 18 18 18 18 18 18 18 17 17 17 17

ECMWFFLT1_850_dewp_024.txt.gz
Dewpoint
10 12 13 14 15 15 15 16 16 16 17 17 15 13 12 11 12 11 10 9 9 9 9 10 10 10 10 10 10 10 10 10 10 11 11 10 9 9 8 8 8 8 8 8 8 8 8 9 9 9 9 10 12 12 12 12 13 14 14 14 15 15 14
9 10 12 13 14 15 15 16 16 16 16 16 15 14 13 12 11 10 9 7 7 8 8 9 9 10 10 10 10 10 9 9 9 10 11 10 9 9 8 8 8 8 8 8 8 7 8 8 8 9 9 10 12 12 12 12 13 14 15 14 14 15 15
8 9 11 12 14 15 15 16 16 16 15 15 14 13 13 11 8 8 7 6 6 6 7 8 8 8 9 10 9 9 9 9 9 10 10 9 8 9 8 8 8 8 8 8 8 8 8 8 8 9 9 10 11 12 12 12 13 14 15 14 14 15 15
8 9 10 12 13 14 15 15 16 16 16 14 12 11 11 10 8 7 6 5 5 5 5 6 6 7 7 8 8 8 8 8 9 10 9 8 9 10 10 9 8 8 8 8 9 9 9 8 8 9 9 10 11 12 12 12 13 14 14 13 13 14 14
8 8 9 11 13 14 15 15 15 15 15 14 12 10 9 9 9 8 6 6 5 4 4 4 4 5 6 6 6 7 6 6 8 8 7 8 10 10 11 10 10 9 9 9 9 9 9 9 9 9 10 10 11 11 12 12 12 13 13 13 13 13 13
5 8 9 10 12 13 14 14 14 15 14 14 14 13 12 12 12 10 8 7 6 5 4 4 4 4 4 5 5 5 5 5 6 7 7 8 9 11 11 11 11 11 11 11 10 10 9 9 9 10 10 10 11 11 12 12 11 12 13 13 13 13 12
1 7 9 9 11 12 13 14 13 14 14 14 15 15 15 15 14 13 12 10 7 6 6 4 3 3 3 4 4 4 4 4 5 5 6 7 8 9 10 11 11 11 11 11 11 10 10 9 9 10 10 10 11 11 11 11 11 11 12 13 13 13 12
-1 6 9 9 10 11 12 13 13 13 14 14 14 15 15 15 15 14 14 12 10 10 8 6 4 3 2 2 2 2 3 3 3 4 4 6 7 8 9 9 10 10 11 11 11 10 10 10 9 10 10 11 11 11 11 11 10 10 11 12 13 13 12
-1 8 10 9 9 10 10 12 13 13 13 14 14 14 15 15 15 14 13 12 13 13 10 8 8 5 2 2 1 0 2 2 2 3 3 4 5 6 7 8 9 9 10 10 10 10 10 10 10 10 11 11 11 11 11 11 11 10 11 12 12 13 12
4 9 10 9 8 9 9 11 12 12 13 14 14 13 14 15 15 14 13 12 13 12 11 11 11 9 6 4 2 1 1 2 2 3 2 3 4 4 5 6 7 7 7 9 10 10 9 10 11 11 11 11 11 11 10 10 11 11 11 11 12 12 13
8 10 10 9 9 8 8 9 11 11 12 13 13 13 14 14 15 15 14 13 13 12 12 12 13 12 9 6 5 5 3 3 3 3 3 2 3 3 4 5 7 7 6 7 8 9 10 10 10 11 12 11 11 11 10 10 10 10 11 11 11 12 13
9 10 10 9 9 9 9 10 10 9 10 10 11 13 13 13 14 14 14 14 14 13 14 13 13 13 11 8 7 7 6 6 5 5 5 4 4 5 6 7 7 8 7 7 7 9 10 10 10 11 11 11 11 11 11 9 9 10 10 11 11 11 12
6 7 8 8 6 7 8 8 8 7 7 8 11 12 13 13 13 14 14 14 14 14 15 15 14 13 12 10 9 8 7 7 7 7 7 7 7 8 8 8 8 8 9 9 8 9 10 10 10 10 10 11 12 12 11 10 9 9 10 10 11 11 11
2 2 6 7 5 4 3 4 4 5 5 7 10 12 13 13 13 13 13 14 14 14 14 15 15 14 13 12 10 9 7 6 7 7 7 8 8 9 9 9 9 9 11 11 10 9 10 10 10 10 10 11 12 12 12 12 10 9 9 9 10 11 11
-1 -4 -1 5 8 5 0 0 2 1 2 4 8 11 12 13 13 13 13 14 14 14 14 15 15 14 13 12 11 9 8 9 9 8 8 8 9 9 9 10 10 10 12 12 11 10 10 11 11 11 11 11 12 12 12 12 12 9 8 8 9 10 11
-5 -7 -10 -1 7 5 -2 -4 -3 -4 -2 -1 3 8 11 12 13 13 13 14 14 14 14 14 15 14 13 13 11 10 10 10 9 9 8 8 8 9 9 10 11 11 12 12 12 11 11 12 12 12 11 11 12 12 13 13 12 10 8 7 8 9 10
-8 -6 -8 -6 2 -0 -10 -9 -8 -9 -5 -5 -6 1 7 9 10 11 13 14 14 14 14 14 14 14 13 13 12 12 12 10 9 9 9 8 9 9 9 10 11 12 12 13 12 12 11 12 12 12 13 13 12 12 13 13 12 11 8 6 6 8 9
-6 -4 -6 -5 2 1 -11 -12 -8 -11 -9 -8 -7 -4 -0 4 8 10 12 13 13 14 14 14 14 13 12 13 13 13 11 10 10 9 9 9 10 10 11 11 11 12 13 13 13 13 12 12 13 13 13 14 14 13 13 13 12 11 9 6 5 7 8
-4 -3 -6 -5 4 5 -2 -7 -7 -7 -8 -8 -8 -7 -5 2 6 7 8 11 14 14 14 14 14 13 12 13 13 13 11 10 10 9 9 10 10 11 12 11 11 12 12 12 13 13 13 13 13 14 15 14 15 15 13 13 13 12 11 9 6 5 7
-2 0 -0 -2 1 4 1 -5 -8 -8 -7 -8 -6 -1 1 3 3 5 8 11 13 13 13 14 14 14 13 12 12 11 10 10 10 10 10 11 11 12 12 11 11 11 11 13 13 14 16 16 15 17 18 16 16 17 16 14 13 13 12 11 9 7 6
-1 1 2 3 3 3 -1 -7 -9 -8 -8 -8 -5 -0 3 5 7 10 11 13 12 11 12 13 14 14 13 11 10 10 9 9 9 9 10 11 11 12 12 11 11 11 11 13 13 14 17 17 16 18 19 17 17 18 18 16 14 13 13 13 11 9 8
0 2 6 8 6 2 -3 -7 -6 -6 -7 -7 -6 -2 3 7 10 12 13 13 13 12 11 11 12 12 12 10 8 8 8 8 9 9 10 11 11 12 12 11 11 11 12 13 14 15 17 17 17 18 19 18 17 18 18 18 17 14 13 13 12 11 9
5 7 8 8 4 -0 -3 -4 -5 -5 -5 -5 -4 -2 4 8 11 12 12 13 14 14 12 11 11 11 10 9 7 7 8 9 9 9 10 11 12 11 11 11 11 12 13 13 14 15 16 16 17 18 18 18 17 17 18 18 18 15 14 13 12 11 8
10 10 9 6 3 2 2 0 -2 -2 -3 -2 -0 1 4 8 10 11 12 13 14 15 14 12 9 8 8 8 8 9 10 10 10 10 11 11 11 11 11 12 12 13 13 13 14 15 15 16 17 18 18 18 18 17 18 18 17 17 16 14 13 11 9
14 13 10 8 7 6 4 3 1 1 2 3 3 4 5 6 9 11 11 12 13 15 15 13 9 9 9 10 11 11 10 10 10 10 10 10 10 11 12 13 13 13 14 14 14 15 16 17 18 17 17 18 18 18 18 18 18 17 17 15 14 13 11
15 13 11 11 11 9 7 7 6 7 9 8 5 5 6 5 7 10 11 11 12 14 15 14 11 10 10 10 10 10 9 9 9 9 10 10 11 12 12 12 13 14 14 14 15 16 16 17 18 17 18 18 18 18 18 18 18 18 18 17 16 15 14
15 14 14 14 13 10 10 11 9 9 11 9 6 6 6 4 6 9 10 10 10 12 14 14 12 9 9 9 9 9 9 9 9 9 10 11 12 12 13 13 13 14 14 15 16 17 17 17 17 18 18 18 18 18 18 18 18 18 18 18 17 16 15
15 16 16 16 14 14 14 13 11 10 10 9 8 8 7 5 7 8 8 9 9 10 12 14 13 11 10 9 9 10 10 10 10 11 11 12 12 13 13 13 14 14 14 15 17 17 17 17 17 17 18 18 18 18 18 18 18 18 18 18 18 17 16
16 16 16 16 16 16 16 15 13 11 11 11 11 10 9 8 8 8 9 10 10 12 14 16 16 15 13 11 10 11 12 12 11 11 12 12 12 13 13 13 13 14 14 15 16 17 17 18 17 17 18 18 18 18 18 18 18 18 18 18 18 17 17
16 16 16 17 17 17 17 17 16 14 12 11 11 12 13 13 11 10 11 10 10 11 13 15 15 14 14 13 12 12 13 14 13 12 12 12 12 13 13 13 14 15 15 16 17 17 18 19 18 18 18 18 18 18 18 18 18 18 18 18 17 17 17
16 16 16 17 17 17 17 18 18 17 16 15 13 12 14 14 13 12 11 11 10 10 11 12 12 12 12 12 12 12 13 14 14 14 13 13 14 14 14 14 15 16 16 17 18 18 19 19 19 18 18 18 18 18 18 18 19 18 18 18 17 17 16
15 16 16 16 17 17 17 17 18 18 17 17 16 15 14 13 13 12 11 11 12 11 11 12 12 12 12 13 13 13 14 14 15 15 15 14 15 16 15 15 16 16 17 18 19 19 19 19 19 18 18 18 18 19 18 19 19 19 18 18 18 18 17
16 16 16 16 16 17 17 17 17 17 17 17 17 17 17 16 15 15 14 14 14 13 12 12 12 13 13 14 14 14 14 15 16 17 17 16 16 17 17 17 18 18 18 19 19 18 19 19 19 18 18 18 19 19 18 19 19 19 19 18 18 18 18
16 16 16 16 16 16 17 17 17 17 17 17 17 17 18 18 17 17 17 17 17 17 16 15 14 14 13 14 14 14 15 15 16 16 18 18 18 18 19 19 19 19 19 19 18 18 18 19 19 19 18 18 18 18 18 19 19 19 19 18 18 18 18
16 16 16 16 16 16 16 16 16 16 17 17 17 17 17 17 17 18 18 18 18 18 19 18 18 17 16 16 16 16 15 16 16 15 16 18 18 18 18 18 18 18 18 18 19 19 18 18 18 18 18 18 18 18 19 19 19 19 19 19 18 18 18
16 16 16 16 16 16 16 16 16 16 16 16 16 16 16 16 17 17 17 18 18 18 18 19 19 18 18 18 19 18 17 18 18 17 17 17 18 18 18 17 17 17 17 17 18 18 18 18 18 18 18 18 18 19 19 19 19 19 19 19 19 18 17
15 16 16 16 16 16 16 16 15 16 16 16 16 16 16 16 16 16 16 17 17 18 18 17 16 16 16 16 16 16 16 17 17 17 17 18 18 18 18 18 18 17 17 16 17 17 17 17 17 18 18 18 18 18 18 18 19 19 19 19 19 18 18
15 15 15 15 15 16 16 16 16 16 15 16 16 16 16 16 16 16 16 16 16 16 16 15 14 14 13 11 11 11 11 11 12 12 13 13 14 15 15 15 16 17 17 15 15 15 16 16 17 17 17 17 18 18 18 18 18 18 18 19 18 18 18

ECMWFFLT1_850_dewp_030.txt.gz
Dewpoint
5 10 11 10 11 12 12 13 14 15 15 16 17 17 17 17 17 17 17 16 14 11 12 12 12 12 12 11 10 9 9 8 7 7 8 8 8 10 11 12 13 14 14 14 13 12 13 14 14 12 11 9 9 10 10 10 11 11 12 13 13 14 15
3 8 10 10 11 11 12 12 13 14 15 17 18 17 17 18 17 17 17 17 15 12 10 10 10 11 10 10 10 10 9 8 7 6 7 7 7 7 8 9 11 13 12 13 14 13 13 13 14 13 12 11 9 9 10 10 10 10 11 12 13 13 14
3 5 9 10 11 11 12 12 13 14 15 16 18 18 17 18 17 17 17 17 16 14 11 8 7 8 8 8 9 8 7 7 7 7 6 6 5 5 7 8 9 12 12 12 14 16 15 14 14 14 14 13 11 10 9 10 10 10 11 12 12 13 13
4 2 6 9 10 11 12 13 13 15 15 16 18 18 17 17 17 17 17 17 16 16 13 8 6 7 7 7 6 6 5 5 5 5 5 5 5 5 6 7 9 11 13 13 14 15 17 16 16 15 15 15 14 11 9 9 9 10 11 12 12 13 13
6 2 3 8 10 10 11 12 14 15 16 16 18 18 17 17 17 17 17 17 17 15 12 8 7 7 6 5 5 4 4 4 4 5 5 5 5 5 5 7 9 10 12 14 14 14 15 16 16 16 15 15 14 13 12 9 8 9 11 12 12 12 13
6 3 3 8 10 9 10 10 12 15 16 16 17 18 18 17 17 17 18 18 18 16 13 11 9 8 8 7 5 4 4 4 4 4 5 5 5 6 5 6 9 10 11 13 14 14 14 14 16 16 16 15 14 14 13 10 9 9 9 11 12 12 12
5 2 3 7 9 9 10 11 12 14 16 15 15 17 18 17 17 18 18 19 18 17 16 13 11 9 9 8 6 5 5 4 4 5 5 5 5 6 6 7 9 10 11 12 13 13 13 13 13 15 16 16 15 14 13 11 9 8 9 9 10 11 11
5 4 4 5 6 7 9 11 12 11 13 14 14 16 18 17 17 17 18 19 19 18 17 16 14 11 9 7 6 6 6 5 5 5 5 5 6 6 7 8 9 9 11 13 12 12 13 12 11 13 15 16 15 14 13 12 11 9 10 10 9 9 10
4 5 3 3 5 6 7 9 10 10 11 12 13 16 17 17 17 17 18 19 19 19 18 17 15 13 10 9 8 8 8 7 6 6 6 6 6 6 7 8 9 10 11 13 13 13 12 11 11 11 12 14 14 13 12 12 12 12 12 11 9 9 9
3 5 2 2 5 7 8 9 10 10 10 12 13 16 17 18 17 17 18 18 19 19 18 17 15 14 12 10 9 9 8 8 7 6 6 6 6 7 7 7 8 9 11 12 13 13 12 11 11 11 10 11 12 13 11 10 11 12 13 12 11 9 9
2 3 2 2 4 6 9 9 10 10 10 12 15 16 17 17 17 17 17 18 18 19 19 18 17 17 15 11 9 8 8 8 7 7 6 6 6 6 7 7 8 8 10 12 13 12 12 12 11 11 10 10 10 11 10 10 11 12 13 13 12 11 9
5 4 2 2 3 5 7 6 7 8 10 13 15 16 16 17 17 17 17 17 18 18 18 18 18 18 17 14 11 10 8 6 7 8 7 5 6 6 6 7 8 8 9 11 12 12 12 12 11 10 10 9 8 9 9 10 10 11 11 12 13 12 11
7 6 3 3 5 6 7 6 7 8 9 12 15 16 16 17 17 17 17 17 17 17 17 18 18 18 18 17 14 13 11 6 4 7 8 6 6 7 8 8 9 10 11 12 12 12 12 12 11 10 8 7 6 7 8 9 10 10 11 11 12 13 12
6 6 6 6 5 6 6 7 9 10 10 12 14 15 16 16 17 17 17 17 17 17 17 17 17 17 18 18 17 15 13 9 4 4 5 5 6 7 9 10 10 12 13 13 14 14 13 12 12 11 9 8 7 5 6 8 9 10 11 11 11 12 12
3 4 6 7 7 5 4 4 6 9 12 14 15 15 15 16 16 17 17 17 17 17 16 16 17 17 17 17 17 16 15 12 8 5 4 5 6 6 8 10 11 12 14 14 14 14 14 14 14 13 12 10 9 7 8 8 8 9 10 10 10 11 12
0 1 4 7 7 6 7 8 9 12 14 15 15 15 15 15 16 16 17 17 17 17 16 16 16 16 16 16 16 16 16 15 13 10 7 5 5 6 6 8 10 12 13 14 15 14 14 15 16 16 15 14 12 11 10 10 10 9 8 8 9 9 11
-3 -1 3 8 9 9 10 11 13 14 15 15 15 15 15 15 15 15 16 16 16 16 16 16 16 16 16 16 16 16 16 15 14 13 11 8 6 5 5 6 8 11 12 14 14 14 14 15 15 16 16 16 15 14 12 11 10 9 7 7 7 7 9
-3 -1 1 7 10 11 11 10 8 9 13 14 15 15 15 15 15 15 15 15 16 16 16 16 16 16 16 16 16 17 16 16 15 14 13 11 9 7 6 6 7 9 11 12 13 14 15 15 15 15 15 17 17 16 15 12 10 8 8 7 6 6 8
-2 -3 -4 1 5 8 11 11 6 5 10 13 14 15 15 15 15 15 15 14 15 15 15 15 15 15 16 16 16 17 17 17 16 15 14 13 11 10 8 7 7 8 10 11 12 14 14 14 14 14 14 15 16 16 16 14 12 10 9 9 9 8 8
-2 0 0 -0 -0 4 9 11 11 11 12 13 13 13 14 14 14 14 14 14 14 14 15 15 15 15 16 16 16 16 17 17 17 16 15 14 13 12 12 10 8 8 9 11 12 13 13 13 13 13 13 13 13 15 15 15 15 14 13 12 11 11 10
-2 -1 -2 -2 2 8 10 10 11 11 10 10 11 11 11 13 14 14 13 14 14 14 14 14 14 14 15 15 16 16 17 17 17 17 16 16 15 15 14 13 12 11 11 12 13 13 12 12 13 13 13 13 13 14 15 15 16 16 16 15 14 13 12
2 4 4 7 9 11 11 10 10 9 7 9 10 8 7 8 11 13 14 14 14 14 14 14 14 14 14 15 16 16 16 17 17 17 17 17 17 16 15 15 14 14 13 13 14 15 14 13 13 14 14 15 15 15 15 15 16 17 16 16 16 16 14
11 13 12 13 13 13 12 11 11 9 7 9 10 9 10 9 8 9 11 13 14 14 14 14 14 14 14 14 15 16 16 17 17 17 17 17 17 17 17 16 16 16 15 15 16 16 16 15 14 14 15 15 16 15 15 15 16 16 17 17 17 17 16
14 14 14 13 15 16 16 13 10 7 4 9 11 10 12 12 10 9 9 11 13 13 14 14 14 14 14 14 15 15 16 16 17 17 17 17 18 18 18 17 17 17 17 17 16 17 17 17 17 16 16 16 16 16 15 15 15 16 16 17 18 18 18
15 15 14 14 16 17 15 11 12 11 11 16 18 17 16 15 12 10 8 10 12 13 14 14 13 14 14 14 15 16 16 16 17 17 17 18 18 19 18 18 17 17 18 17 17 17 17 18 18 18 18 17 17 17 17 16 16 15 15 16 18 18 18
14 15 14 14 16 16 13 12 17 18 17 18 18 18 18 17 15 13 10 10 12 13 13 14 14 14 15 15 15 16 16 17 17 17 18 19 19 19 18 18 18 18 18 18 18 17 17 18 18 19 19 19 18 18 17 17 17 16 16 16 17 18 18
14 14 14 14 14 16 15 15 18 19 18 17 16 17 18 17 15 14 13 11 12 13 13 14 14 15 15 15 16 16 17 17 17 18 18 19 19 19 19 18 18 18 18 19 19 18 18 18 18 19 19 19 19 19 18 18 18 17 17 17 17 18 18
15 15 15 14 15 17 17 17 18 18 18 18 18 18 19 19 17 15 13 13 14 14 14 14 15 15 15 15 16 16 17 18 18 18 19 19 20 20 19 19 19 19 19 19 20 19 19 19 19 19 19 19 19 19 19 19 19 18 18 18 18 18 18
15 16 16 15 15 17 17 17 18 18 18 18 18 15 16 18 19 17 16 15 16 16 15 15 15 16 16 16 16 16 17 18 19 19 19 20 20 20 20 19 19 20 20 20 20 20 20 19 19 19 19 19 19 19 19 19 19 19 19 19 18 18 18
15 16 16 16 16 17 16 17 18 18 18 19 18 15 13 17 19 18 18 18 17 17 16 15 16 16 16 16 17 17 17 18 19 20 20 20 20 20 20 20 19 20 20 20 20 20 20 20 20 19 19 19 19 19 19 19 19 19 19 19 19 19 19
15 16 16 16 16 17 17 17 18 18 17 18 18 16 16 18 20 19 19 20 19 18 17 16 16 17 17 17 17 17 18 18 19 20 20 20 20 21 21 20 20 20 20 20 20 20 20 20 20 20 20 19 19 19 19 19 19 19 19 19 19 19 19
16 16 16 16 17 17 17 17 17 17 17 18 18 17 17 19 20 20 20 20 20 19 18 18 18 18 18 18 18 18 18 18 19 20 20 20 20 20 20 20 20 20 20 20 20 20 20 19 20 20 20 20 19 19 19 19 19 18 18 19 19 18 18
16 16 16 16 17 17 17 17 17 17 17 17 18 18 18 18 19 19 19 19 19 19 18 18 19 19 19 19 19 19 19 19 19 19 20 20 20 20 20 20 20 20 20 20 20 20 19 19 19 19 19 19 19 19 19 18 18 18 18 18 18 18 18
16 16 16 16 17 17 17 17 17 17 18 17 17 18 18 18 18 18 18 19 19 18 18 18 19 20 20 20 20 20 20 19 19 19 20 20 20 20 20 20 20 20 20 20 19 19 19 19 19 19 19 19 19 19 19 19 19 19 19 19 19 19 19
16 16 16 16 17 16 16 17 17 17 17 17 17 17 17 18 18 18 18 18 19 19 18 18 19 19 20 19 19 19 19 20 19 19 19 19 19 19 20 19 19 19 19 19 19 19 19 19 19 19 19 19 19 19 19 19 19 19 19 19 19 19 19
15 16 17 16 16 16 16 16 16 17 16 16 16 17 17 17 17 17 18 18 19 19 19 18 18 19 19 19 19 19 19 19 19 19 19 19 19 19 19 19 19 19 19 19 19 19 19 19 19 19 19 19 19 19 19 19 19 19 19 19 19 19 19
15 16 17 16 16 16 16 16 16 16 16 16 16 16 16 16 16 16 17 17 18 19 19 19 19 19 19 19 19 18 19 19 19 19 18 19 19 19 19 19 19 19 19 19 19 19 19 19 18 18 18 18 18 19 19 19 19 19 19 19 19 19 19
15 16 16 16 16 17 16 16 16 16 16 16 16 16 16 16 15 15 16 17 17 18 18 18 19 19 19 19 19 18 18 19 19 19 18 18 19 19 19 19 19 19 18 18 18 19 19 19 19 19 19 19 19 19 19 19 19 19 19 19 19 19 19

ECMWFFLT1_850_dewp_033.txt.gz
Dewpoint
13 13 14 14 14 14 14 14 14 15 15 15 15 16 16 16 16 17 17 17 16 16 16 15 15 14 13 11 10 9 8 7 6 5 5 4 4 4 4 6 8 9 12 13 13 12 11 11 11 10 10 10 10 10 9 10 11 12 13 13 13 14 14
12 13 13 14 14 14 14 14 14 14 14 15 16 16 16 17 17 17 17 17 16 16 16 16 15 14 12 9 8 8 7 7 6 5 5 4 4 4 5 5 7 8 10 11 12 12 12 11 10 9 10 10 11 11 11 10 11 11 12 13 13 13 13
11 12 12 13 13 14 14 14 14 14 14 15 16 16 16 17 17 17 17 17 17 16 16 16 15 14 12 9 8 7 7 6 6 5 4 4 4 4 5 6 7 8 9 11 11 11 12 11 10 9 9 10 10 10 11 11 10 10 11 11 12 12 13
10 11 11 12 13 13 14 14 14 14 14 14 15 16 16 17 17 17 17 17 17 16 16 16 15 14 13 11 9 7 7 6 6 5 4 4 4 4 5 7 8 8 9 10 10 10 11 12 11 10 10 10 10 9 10 10 10 10 10 10 11 11 12
10 11 11 12 12 13 13 14 14 14 14 14 15 15 16 16 17 17 17 17 17 17 16 16 15 15 14 13 11 8 6 5 5 5 5 4 4 5 5 7 8 8 8 8 9 9 10 11 11 11 11 10 10 10 10 10 10 9 9 10 10 10 11
10 10 11 11 12 12 12 13 14 14 14 15 15 15 15 16 17 17 17 17 17 17 17 16 16 15 15 14 13 10 8 7 6 5 4 4 4 4 5 6 7 7 6 6 7 7 9 10 11 11 11 11 11 11 10 10 10 10 9 9 9 10 10
10 10 11 11 11 11 11 12 13 13 14 14 14 15 15 16 17 17 17 17 17 17 17 17 16 16 15 15 14 12 10 8 7 5 5 4 4 4 3 4 5 5 5 5 5 6 8 9 11 12 12 12 12 12 11 10 10 10 9 9 8 9 10
9 10 10 11 11 11 10 11 12 12 13 13 14 15 15 16 16 17 17 17 17 17 17 17 17 16 16 15 14 13 11 9 8 7 6 5 5 4 3 4 4 4 4 5 5 5 7 8 10 12 13 13 13 12 12 11 10 10 9 9 8 8 9
7 9 9 9 10 10 10 10 11 11 12 12 14 15 16 17 17 17 17 17 17 17 17 17 17 16 15 15 14 13 12 11 10 9 8 8 7 6 4 4 3 4 4 4 5 5 6 8 9 11 13 14 14 13 12 11 11 10 9 8 8 8 8
6 8 8 8 9 10 11 11 12 12 12 13 13 14 16 17 17 17 17 17 17 17 17 17 17 17 16 15 14 14 13 13 11 10 10 9 8 7 5 4 4 4 4 4 5 6 6 8 9 11 12 13 14 14 13 11 10 10 9 8 8 8 7
5 6 8 9 9 10 11 11 12 12 11 12 13 14 15 16 17 17 18 18 18 18 18 17 17 17 17 15 14 14 13 12 12 12 11 9 8 7 6 5 4 4 5 5 5 6 7 8 10 12 12 12 11 12 12 11 10 9 8 7 7 7 7
5 6 9 10 9 10 11 11 11 10 11 12 14 15 15 15 17 17 17 18 18 18 18 18 18 18 17 17 15 14 13 12 12 12 10 9 8 7 6 6 5 5 5 5 5 6 7 8 10 11 11 11 10 9 9 9 9 9 7 7 7 7 7
5 6 9 10 10 10 10 10 10 10 11 13 15 16 15 15 16 17 17 17 17 18 18 18 19 18 18 18 17 16 14 13 11 10 9 8 8 7 7 7 7 6 6 5 6 7 7 8 9 10 10 9 9 8 7 7 8 8 8 8 8 7 7
6 6 9 9 9 10 10 10 11 11 12 14 15 16 15 15 15 16 17 17 17 17 18 19 19 19 19 19 18 17 15 12 10 8 8 8 8 8 7 7 7 7 7 6 6 7 8 8 8 9 9 8 8 8 8 7 8 8 8 8 8 8 8
6 6 8 8 8 9 10 11 12 12 13 14 14 15 15 14 15 16 17 17 17 17 18 18 19 19 19 19 19 18 16 14 11 9 8 8 8 8 7 7 7 8 8 8 7 7 8 9 9 9 9 10 9 9 9 9 9 8 7 7 7 7 8
8 8 9 8 8 8 9 10 11 10 11 12 12 12 13 13 15 16 17 17 17 17 17 18 18 19 19 19 19 18 17 16 14 11 9 9 8 7 7 7 7 8 9 9 8 8 9 10 11 10 10 10 10 10 10 10 9 8 7 7 6 7 7
9 9 10 9 9 9 9 8 9 8 9 10 10 11 13 15 16 16 17 17 17 17 17 17 18 18 19 19 19 19 18 17 16 14 11 9 8 7 7 7 7 8 9 10 9 9 9 10 12 11 11 11 11 11 11 10 9 9 8 8 8 8 8
9 10 10 10 10 10 9 10 9 9 9 9 9 12 15 16 17 17 17 17 17 17 17 17 18 18 18 18 18 18 18 18 17 16 14 11 10 8 6 6 8 9 9 10 10 9 9 10 11 11 11 11 11 11 11 10 9 9 9 9 9 9 9
8 9 9 9 10 10 9 9 9 8 8 9 10 12 15 16 16 16 17 17 17 17 17 17 17 17 18 18 18 18 18 18 17 17 16 14 12 10 9 8 9 9 9 9 10 9 9 7 8 9 11 12 11 10 10 9 9 9 10 10 10 10 11
6 8 9 10 11 12 12 12 12 12 12 13 14 14 15 16 16 16 16 16 17 17 17 17 17 17 17 17 17 18 18 17 17 17 17 16 15 14 13 11 10 9 8 9 10 11 10 8 7 7 9 10 10 10 9 9 8 9 10 11 11 12 12
11 12 13 13 12 13 14 14 14 15 15 15 15 15 15 15 15 15 15 16 16 17 17 17 17 17 17 17 17 17 17 17 17 17 16 16 16 16 15 14 12 11 11 11 11 11 9 9 8 6 6 7 9 11 10 9 9 10 11 12 12 13 13
16 16 16 16 14 13 13 12 12 12 13 14 13 12 12 12 12 13 14 15 15 16 16 16 16 17 17 17 17 17 17 17 17 17 16 16 16 16 16 15 15 13 13 13 13 12 11 10 10 9 8 8 10 11 11 10 11 12 13 13 14 15 15
16 17 16 17 16 14 13 11 9 8 9 11 11 11 11 11 11 12 12 13 13 14 15 15 16 16 16 16 16 16 17 17 17 17 16 16 16 16 16 16 16 15 14 14 14 14 13 13 12 12 11 11 11 11 11 11 13 14 15 15 16 17 17
15 16 16 16 15 13 12 9 7 6 5 4 4 6 8 10 12 13 13 14 13 12 12 13 14 15 15 16 16 16 16 16 16 17 17 17 16 16 16 16 16 16 16 15 15 15 14 14 14 14 14 13 13 13 13 13 14 15 16 16 17 17 18
14 14 15 14 14 13 12 11 12 12 11 9 7 6 6 7 9 12 13 14 14 14 12 11 12 13 14 15 15 15 15 16 16 16 17 17 17 16 16 16 16 16 16 16 16 15 15 15 15 15 15 15 14 14 14 15 15 16 16 16 17 17 18
15 14 13 14 15 14 12 14 15 13 12 14 16 15 13 10 9 11 13 13 14 15 14 13 12 11 12 13 14 14 15 15 16 16 17 17 17 17 17 17 17 17 17 17 17 16 16 16 16 16 15 15 15 15 15 15 16 16 16 16 17 17 18
15 14 14 15 17 16 14 14 14 10 9 11 12 12 13 13 10 10 12 12 12 13 15 15 14 13 12 12 13 14 14 15 15 16 17 17 17 17 17 17 17 17 17 17 18 18 17 17 17 16 16 16 16 16 16 16 16 16 17 17 17 17 17
15 14 14 15 17 17 16 15 13 11 11 10 6 7 12 14 13 11 9 10 10 11 13 14 15 14 13 13 13 13 14 14 15 16 16 17 17 17 17 18 18 18 18 18 18 18 18 18 18 17 17 17 17 17 17 17 17 17 17 17 18 18 18
16 16 15 15 16 17 16 16 16 15 15 14 11 10 11 13 16 16 14 11 9 9 11 13 14 15 15 14 14 13 14 14 15 16 16 17 17 17 17 18 18 18 18 18 18 19 19 18 18 18 18 18 18 18 18 18 18 18 19 19 19 19 19
15 16 16 16 17 17 16 17 18 17 17 16 15 13 13 16 19 19 18 15 13 11 12 13 14 15 15 15 15 14 14 14 15 16 17 17 17 17 18 18 18 18 18 19 19 19 19 19 19 19 19 18 18 18 18 19 19 19 19 19 19 19 19
15 16 16 16 16 16 16 17 18 17 17 17 16 16 17 19 20 20 19 18 17 15 15 15 14 15 16 16 15 15 15 15 16 17 17 17 17 18 18 18 19 19 19 20 20 20 20 20 19 19 19 19 19 19 19 19 19 19 19 19 19 19 19
14 15 16 17 17 16 15 16 17 17 17 17 17 17 18 19 20 20 20 19 19 18 16 15 15 15 16 17 16 15 16 16 16 17 18 18 18 18 18 19 19 19 20 20 20 20 20 20 20 20 20 20 20 20 19 19 19 19 19 19 19 19 19
14 14 16 17 17 16 16 16 17 18 17 16 16 18 18 18 19 19 19 19 20 19 18 17 17 17 17 18 17 17 17 17 17 18 19 19 19 19 19 19 20 20 20 21 21 21 20 20 20 20 20 20 20 20 20 20 19 19 19 19 19 19 19
13 14 15 17 17 16 15 15 16 17 17 16 16 17 17 17 18 18 18 18 18 18 18 18 18 18 19 18 18 17 18 17 18 19 19 20 20 20 20 20 20 20 21 21 21 21 21 21 21 20 20 20 20 20 20 20 20 20 19 19 19 19 18
14 14 16 17 17 16 16 15 16 17 16 16 17 17 17 17 17 18 18 18 17 18 18 18 19 19 19 19 19 19 18 18 18 19 20 20 20 20 20 20 20 20 20 20 21 20 20 20 20 20 20 20 20 20 20 20 19 19 19 19 19 19 19
14 14 16 17 16 16 16 15 15 15 15 16 17 17 17 17 17 17 18 18 19 19 18 18 19 19 19 19 19 19 18 19 19 19 20 20 20 20 20 20 20 20 20 20 20 20 20 20 20 20 20 20 19 19 19 19 19 19 19 19 19 19 19
15 14 15 16 17 17 16 15 15 15 15 16 16 16 16 16 16 17 17 18 19 19 19 18 19 20 19 19 19 19 19 19 19 20 20 20 19 20 20 20 20 20 20 20 20 20 20 20 20 20 20 20 19 19 19 19 19 19 19 19 19 19 19
15 15 15 15 17 17 17 16 16 16 16 16 16 16 15 15 16 16 17 17 18 19 19 19 20 20 20 19 19 19 19 19 19 20 19 20 20 20 20 20 20 20 20 20 20 20 20 20 19 19 19 19 19 19 19 19 19 19 18 19 18 18 18